SCP
0 0 0 0 0 0 0 0 0 0 0 0 0 0 0 0 0 0 0 0 0 0 0 0 0 0 0 0 0 0 0 0 0 0 0 0 0 0 1 1 1 1 1
0 0 0 0 0 0 0 0 0 0 0 0 0 0 0 0 0 0 0 0 0 0 0 0 0 0 0 0 0 0 0 0 0 0 0 0 0 1 1 1 1 1 1
0 0 0 0 0 0 0 0 0 0 0 0 0 0 0 0 0 0 0 0 0 0 0 0 0 0 0 0 0 0 0 0 0 0 0 0 1 1 1 1 1 1 1
0 0 0 0 0 0 0 0 0 0 0 0 0 0 0 0 0 0 0 0 0 0 0 0 0 0 0 0 0 0 0 0 0 0 0 0 0 1 1 1 1 1 1
0 0 0 0 0 0 0 0 0 0 0 0 0 0 0 0 0 0 0 0 0 0 0 0 0 0 0 0 0 0 0 0 0 0 0 0 0 0 1 1 1 1 1
0 0 0 0 0 0 0 0 0 0 0 0 0 0 0 0 0 0 0 0 0 0 0 0 0 0 0 0 0 0 0 0 0 0 0 0 0 0 0 0 1 1 1
0 0 0 0 0 0 0 0 0 0 0 0 0 0 0 0 0 0 0 0 0 0 0 0 0 0 0 0 0 0 0 0 0 0 0 0 0 0 0 0 1 1 1
0 0 0 0 0 0 0 0 0 0 0 0 0 0 0 0 0 0 0 0 0 0 0 0 0 0 0 0 0 0 0 0 0 0 0 0 0 0 0 0 1 1 1
0 0 0 0 0 0 0 0 0 0 0 0 0 0 0 0 0 0 0 0 0 0 0 0 0 0 0 0 0 0 0 0 0 0 0 0 0 0 0 0 1 1 1
0 0 0 0 0 0 0 0 0 0 0 0 0 0 0 0 0 0 0 0 0 0 0 0 0 0 0 0 0 0 0 0 0 0 0 0 0 0 0 0 0 1 1
0 0 0 0 0 0 0 0 0 0 0 0 0 0 0 0 0 0 0 0 0 0 0 0 0 0 0 0 0 0 0 0 0 0 0 0 0 0 0 0 0 0 0
0 0 0 0 0 0 0 1 1 0 0 0 0 0 0 0 0 0 0 0 0 1 1 1 0 0 0 0 0 0 0 0 0 0 0 0 0 0 0 0 0 0 0
0 0 0 0 0 0 0 1 1 1 1 0 0 0 0 0 0 0 0 0 0 0 1 1 0 0 0 0 0 0 0 0 0 0 0 0 0 0 0 0 0 0 0
0 0 0 0 0 0 0 1 1 1 1 1 1 1 1 1 1 0 0 0 0 0 1 0 0 0 0 0 0 0 0 0 0 0 0 0 0 0 0 0 0 0 0
0 0 0 0 0 0 0 0 1 1 1 1 1 1 1 1 1 0 0 0 0 0 0 0 0 0 0 0 0 0 0 0 0 0 0 0 0 0 0 0 0 0 0
0 0 0 0 0 0 0 0 0 0 0 0 0 0 0 0 0 0 0 0 0 0 0 0 1 1 1 0 0 0 0 0 0 0 0 0 0 0 0 0 0 0 0
0 0 0 0 0 0 0 0 0 0 0 0 0 0 0 0 0 0 0 0 0 0 0 0 1 1 1 1 1 0 1 1 0 0 0 0 0 0 0 0 0 0 0
0 0 0 0 0 0 0 0 0 0 0 0 0 0 0 0 0 0 0 0 0 0 0 0 1 1 1 1 1 1 1 1 1 1 0 0 0 0 0 0 0 0 0
0 0 0 0 0 0 0 0 0 0 0 0 0 0 0 0 0 0 0 0 0 0 1 1 1 1 1 1 1 1 1 1 1 1 1 0 0 0 0 0 0 0 0
0 0 0 0 0 0 0 0 0 0 0 0 0 0 0 0 0 0 0 0 0 1 1 1 1 1 1 1 1 1 1 1 1 1 1 1 0 0 0 0 0 0 0
0 0 0 0 0 0 0 0 0 0 0 0 0 0 0 0 0 0 0 0 0 1 2 2 3 2 2 2 2 1 1 1 1 1 1 1 0 0 0 0 0 0 0
0 0 0 0 0 0 0 0 0 0 0 0 1 1 0 0 0 0 0 0 1 1 2 3 3 3 2 2 2 1 1 1 1 1 1 0 0 0 0 0 0 0 0
0 0 0 0 0 0 0 0 0 0 0 1 1 1 1 1 1 0 0 0 1 1 2 3 3 3 2 2 2 1 1 1 1 1 0 0 0 0 0 0 0 0 0
0 0 0 0 0 0 0 0 0 0 0 0 1 1 1 1 0 0 0 0 0 1 2 2 2 2 2 2 1 1 1 1 1 1 0 0 0 0 0 0 0 0 0
0 0 0 0 0 0 0 0 0 0 0 0 0 0 0 0 0 0 0 0 0 0 1 1 1 1 1 1 1 1 1 0 0 0 0 0 0 0 0 0 0 0 0
0 0 0 0 0 0 0 0 0 0 0 0 0 0 0 0 0 0 0 0 0 0 0 0 1 1 1 1 1 1 0 0 0 0 0 0 0 0 0 0 0 0 0
Wind_Speed
5 5 6 6 7 7 7 7 7 6 6 6 6 6 5 4 4 3 4 3 4 3 2 2 2 2 2 2 2 2 2 3 2 2 1 2 2 1 1 1 1 3 4
4 5 5 5 6 7 8 8 8 7 7 7 6 6 6 5 5 5 4 4 4 4 3 3 3 2 3 2 2 2 2 3 3 2 2 2 2 1 1 1 1 1 1
3 4 5 5 6 7 8 8 8 8 8 8 8 8 7 7 6 6 6 6 5 4 4 4 3 3 3 2 3 3 2 2 2 3 2 1 2 1 2 2 1 1 1
3 3 4 5 6 7 7 7 8 8 9 9 9 8 8 8 8 7 7 7 6 5 5 5 5 4 4 4 3 3 3 3 3 3 2 2 2 2 2 2 1 1 1
3 3 4 5 5 6 7 7 8 8 9 10 10 9 9 8 8 8 8 8 8 7 6 6 5 4 3 3 3 3 3 3 3 3 3 3 3 2 2 2 2 1 1
5 5 5 5 5 6 7 7 7 8 9 9 10 10 10 9 7 8 10 9 9 9 8 7 6 8 7 7 6 5 4 4 3 3 3 4 3 3 2 2 2 2 2
6 6 6 6 6 6 7 7 7 8 9 9 10 11 12 11 10 11 13 11 11 9 9 8 6 6 7 8 9 10 8 6 6 5 4 4 3 3 4 4 3 3 2
8 8 7 7 7 7 7 8 8 9 8 9 10 11 12 11 11 12 12 14 13 11 11 10 9 9 8 8 8 8 8 7 7 7 5 3 2 3 3 3 2 2 2
9 9 9 8 8 8 8 9 9 8 9 9 10 11 12 13 12 13 13 12 12 13 12 11 11 11 8 8 9 9 8 7 5 3 2 1 2 1 2 3 4 4 3
10 10 10 10 9 9 10 10 9 8 9 10 10 11 12 13 11 13 16 11 12 12 10 11 11 12 9 12 12 10 10 8 7 7 6 6 6 5 5 6 4 4 3
11 11 11 10 10 10 10 9 9 9 9 10 11 11 11 12 11 13 16 12 12 12 10 10 9 13 12 13 13 11 8 7 7 7 6 6 5 5 5 5 4 3 3
11 11 11 11 10 9 10 10 10 9 10 10 11 11 10 10 10 11 15 17 14 13 11 10 8 13 15 14 12 9 7 7 7 6 6 6 6 5 4 4 4 3 1
11 11 11 12 10 10 10 10 9 8 8 9 9 9 9 8 8 10 14 16 17 14 11 9 7 11 13 12 13 11 11 9 8 8 7 6 6 5 5 4 4 4 3
12 12 11 12 11 11 9 9 9 8 8 9 9 10 9 9 8 7 7 9 12 13 12 9 9 10 10 9 10 11 10 9 9 8 7 6 6 6 6 5 5 5 4
12 12 12 11 11 11 10 9 10 10 9 10 10 10 10 10 9 8 8 8 8 9 10 9 9 10 10 10 10 10 10 9 9 8 8 7 7 7 6 5 5 5 5
12 11 10 10 10 10 11 11 10 12 13 15 16 16 13 14 13 12 13 13 12 11 10 10 11 11 12 12 11 11 11 10 10 9 9 8 8 8 7 6 6 6 5
12 12 10 10 11 11 11 12 13 12 12 14 15 16 17 17 15 14 14 13 13 13 12 12 12 12 12 12 12 11 11 11 10 10 10 9 9 8 8 8 7 6 5
13 12 11 10 11 11 12 12 12 13 13 11 11 13 14 15 15 14 13 10 10 12 13 13 12 12 12 12 12 11 11 10 10 10 10 10 9 9 9 9 8 8 7
13 11 11 11 12 12 12 12 12 14 13 13 12 11 10 12 13 13 11 10 10 11 12 12 12 12 11 11 11 11 11 11 12 11 10 11 10 10 9 9 8 9 7
11 13 13 12 12 12 12 12 12 13 13 12 12 11 10 10 9 8 9 9 10 10 11 12 12 11 11 11 11 11 11 11 12 11 11 10 10 10 10 11 9 9 8
11 12 14 13 12 12 12 12 13 13 13 13 12 12 12 11 11 11 10 10 10 10 11 11 11 11 11 10 11 13 14 12 12 12 11 11 11 10 9 9 9 9 8
11 12 12 12 12 12 12 13 13 13 14 15 13 12 13 12 11 11 10 10 10 9 9 9 10 10 10 11 12 13 13 13 13 12 12 11 11 10 10 10 9 9 8
12 13 13 13 12 13 13 13 13 13 14 14 14 12 12 11 11 11 11 10 9 8 8 8 9 10 10 10 11 12 13 13 13 13 13 12 11 11 10 11 12 11 10
13 14 14 13 13 13 13 13 13 14 14 14 14 13 12 12 12 13 11 10 9 8 8 8 9 12 14 11 10 10 11 11 13 13 17 14 13 11 11 11 11 12 11
13 13 14 13 13 13 13 14 14 14 14 14 13 13 12 12 12 12 11 9 10 9 10 9 7 10 14 15 13 12 12 14 14 12 13 13 14 13 13 13 11 11 10
13 14 13 13 13 13 13 14 14 14 14 13 13 13 13 12 12 12 10 9 8 8 9 8 9 11 13 13 14 14 16 17 17 16 13 12 13 12 13 11 14 12 12
Wind_Direction
240 236 232 233 238 239 240 245 249 252 245 248 250 256 258 255 248 244 263 268 281 285 269 276 274 291 283 278 275 271 263 259 237 197 169 175 191 197 178 222 192 198 153
263 252 248 245 241 243 243 243 245 248 249 250 250 250 251 250 251 252 251 256 267 277 276 272 265 239 259 272 267 257 250 253 240 210 183 182 202 196 209 228 222 210 178
285 266 259 253 251 251 252 250 249 249 249 245 245 248 250 247 246 247 247 250 255 259 262 262 261 249 245 239 250 255 251 245 245 231 201 177 209 195 201 207 206 211 228
320 283 273 270 264 261 259 257 254 253 252 250 246 246 247 246 245 244 245 247 250 249 247 247 250 246 248 244 238 241 244 238 229 228 208 195 201 201 220 211 195 178 192
340 317 302 291 281 272 264 258 257 256 257 255 254 251 246 244 243 246 244 245 248 248 244 239 234 244 281 277 270 249 231 231 218 221 215 211 204 205 213 211 215 214 183
342 332 322 309 300 287 276 265 261 257 257 256 254 252 249 243 225 230 248 247 245 244 245 241 225 213 216 222 245 267 278 258 240 224 221 219 211 202 201 224 218 220 205
346 339 330 317 305 294 287 277 266 259 255 255 254 252 250 244 217 218 228 247 248 247 246 240 232 223 219 223 209 215 226 244 266 266 240 229 217 201 208 218 226 244 244
348 339 333 323 311 301 292 282 272 268 262 255 256 254 252 249 223 221 221 238 245 243 241 241 236 230 220 226 224 219 220 212 220 235 241 233 226 207 225 241 235 233 227
347 337 331 323 316 306 294 285 279 272 268 261 258 257 254 250 225 218 219 238 241 241 237 237 238 236 201 203 228 226 221 210 193 210 320 34 65 54 257 220 207 217 214
341 332 328 323 314 306 298 292 284 273 269 269 264 259 257 257 237 215 217 237 241 239 234 233 226 236 203 192 221 225 223 216 202 188 195 197 201 187 215 235 227 229 223
335 329 324 321 315 308 303 296 289 281 275 270 268 262 260 258 246 220 214 233 241 241 235 229 222 200 209 202 220 230 223 219 210 206 200 198 201 200 197 209 219 238 233
330 327 324 321 317 312 307 301 295 287 279 273 270 268 263 258 252 233 218 225 243 245 242 236 222 187 199 204 213 218 194 202 215 208 206 204 201 198 195 188 183 191 221
325 325 323 321 319 314 310 304 298 289 281 279 275 271 269 264 254 237 225 225 229 239 245 244 225 184 193 205 210 198 192 206 211 211 210 206 201 193 180 169 168 162 152
322 322 321 321 322 320 314 305 300 295 290 286 282 278 276 270 261 251 240 230 225 231 238 227 208 194 205 214 192 195 208 212 211 211 207 197 186 181 182 179 178 177 177
319 320 320 321 319 315 311 306 299 294 292 289 288 285 280 274 269 269 263 252 238 228 226 222 213 204 204 207 207 202 202 203 205 209 201 193 187 184 183 184 189 191 199
319 321 320 317 315 312 310 307 290 275 277 270 267 270 276 276 282 270 259 256 250 233 221 222 217 212 208 205 205 203 202 203 201 200 199 194 190 187 182 180 187 195 197
313 314 314 313 312 310 309 309 308 300 276 265 263 262 262 269 271 265 258 251 240 219 222 224 219 216 211 207 205 204 202 201 198 196 197 194 191 187 183 182 186 190 190
308 309 306 305 306 305 305 305 304 304 305 301 288 271 264 263 262 259 254 245 238 221 225 224 220 216 212 209 205 202 200 196 196 196 194 192 190 187 186 186 187 188 185
304 304 306 306 303 301 301 300 299 299 297 297 298 295 281 274 265 255 238 240 238 231 225 224 222 216 212 208 204 200 196 193 193 192 192 190 189 188 188 188 184 176 186
298 296 297 299 299 299 300 299 299 299 299 296 295 296 298 294 286 274 253 248 245 241 234 227 221 216 210 205 200 197 195 192 191 192 189 187 187 187 186 185 183 180 187
297 298 295 293 295 298 299 299 299 298 297 295 293 294 293 287 281 274 265 255 249 245 240 233 224 214 209 203 197 196 195 192 190 189 187 186 185 185 183 182 182 182 181
295 294 295 295 296 295 298 299 298 297 297 295 294 293 285 277 276 273 268 262 256 249 245 238 229 216 207 203 198 195 194 193 189 186 184 182 182 180 178 178 178 177 178
290 292 292 292 292 293 292 293 294 295 296 295 294 292 289 284 280 275 271 267 261 253 245 238 232 220 210 205 201 198 196 192 187 182 179 177 177 177 177 177 176 176 178
291 291 292 292 292 293 293 293 294 294 295 294 292 291 289 284 279 276 271 266 262 257 246 235 229 221 210 204 201 199 198 188 181 180 177 174 173 173 174 174 175 177 177
290 290 291 291 292 291 291 292 293 294 294 293 291 290 288 285 281 278 272 264 259 253 246 236 226 218 210 205 201 195 179 171 171 169 170 171 170 170 171 171 171 171 172
289 290 291 290 290 290 291 292 294 295 294 293 291 290 288 284 281 278 271 263 256 249 240 228 220 216 208 204 200 184 164 160 159 159 163 164 166 167 168 169 168 169 170